User: anonymous   Login
Location: Table Mountain
(47.2500°N, 120.5778°W)
Time: 06:50:58
(UTC-07:00)
Language:

Hubble Space Telescope - Orbit

View from above orbital plane
View from above orbital plane
View from above satellite
View from above satellite

Ground track
Ground track

The orbit data is extracted from the following two-line orbital elements,

1 20580U 90037B   18168.97248427 +.00000377 +00000-0 +12092-4 0  9996
2 20580 028.4692 109.9139 0002890 145.6914 280.0814 15.09052298345500
Epoch (UTC): 17 June 2018 23:20:22
Eccentricity: 0.0002890
inclination: 28.4692°
perigee height: 537 km
apogee height: 541 km
right ascension of ascending node: 109.9139°
argument of perigee: 145.6914°
revolutions per day: 15.09052298
mean anomaly at epoch: 280.0814°
orbit number at epoch: 34550

The dashed part of the orbit path shows where the satellite is in the earth's shadow,  

DLR